Theta_e
328 327 333 334 335 337 340 342 343 348 346 346 349 348 346 346 344 344 342 344 344 343 342 342 345 346 348 345 349 347 343 345 349
328 329 330 335 339 340 339 341 344 345 348 347 349 348 348 346 346 344 343 345 346 346 346 346 346 348 348 347 349 348 340 345 345
328 328 327 334 338 331 335 338 344 347 349 349 349 349 349 348 345 343 342 344 345 345 346 346 348 347 350 348 350 350 349 349 345
327 329 330 328 332 335 335 339 341 348 348 349 350 350 349 346 344 342 341 342 345 346 345 346 344 347 349 348 348 349 348 345 346
326 331 334 329 334 334 334 336 344 346 350 350 352 352 348 347 346 344 341 341 342 344 345 346 348 348 348 348 349 349 350 348 351
320 329 332 330 326 329 328 329 332 338 351 351 352 351 348 347 347 346 343 342 342 343 345 346 348 346 347 347 348 348 349 346 346
323 325 328 328 323 325 330 329 327 328 343 353 352 351 349 346 347 348 346 346 344 343 346 344 345 341 341 345 346 348 349 348 347
323 323 325 327 328 331 331 328 335 330 332 352 352 349 348 347 348 348 348 346 344 344 345 343 343 342 338 336 344 349 348 349 348
320 320 322 323 324 327 327 330 333 339 345 350 350 348 348 348 347 347 346 346 345 344 344 345 343 341 338 338 346 342 343 347 346
320 321 321 320 320 321 323 324 331 335 339 344 347 348 348 347 347 346 346 346 345 344 344 345 344 343 344 344 346 339 339 342 347
316 317 320 321 320 321 322 322 328 338 338 340 347 346 347 348 348 346 345 346 346 345 344 344 344 343 344 344 345 333 335 339 343
315 316 316 317 319 321 321 322 326 335 334 341 342 348 348 349 349 347 345 344 344 346 346 344 344 344 344 345 345 331 330 335 339
314 314 315 316 317 318 319 321 323 327 329 336 337 342 347 350 348 347 346 344 343 346 346 346 346 345 346 342 347 328 327 331 339
312 313 314 315 314 313 314 320 322 321 332 334 340 342 344 347 349 347 348 347 344 346 346 345 346 345 347 348 346 343 324 324 339
312 312 314 316 314 313 313 315 321 322 329 335 340 341 341 340 348 350 349 345 345 344 346 345 344 346 345 348 349 333 324 321 326
311 312 313 315 314 313 314 316 318 321 328 335 339 337 336 337 341 349 349 347 345 345 345 345 343 343 343 344 344 344 323 321 320
310 311 312 314 313 313 313 315 318 322 327 338 334 332 333 336 338 338 347 349 348 346 345 345 343 342 342 342 342 340 337 328 324
311 312 313 313 312 313 314 317 319 324 329 334 331 331 331 334 339 343 344 346 339 346 351 344 344 344 343 339 335 338 332 329 332
311 311 313 313 314 316 318 317 316 318 324 332 331 329 327 327 328 335 340 337 328 319 315 315 310 312 334 341 326 317 313 311 311
313 313 313 313 313 314 316 315 315 317 320 328 329 326 325 325 324 328 331 332 329 327 324 315 314 310 308 314 321 310 309 307 308
Wind_Speed
17 2 13 19 18 8 15 16 14 13 14 13 13 13 13 10 9 6 5 8 7 7 6 5 5 6 6 6 5 5 5 4 4
18 14 10 11 17 13 4 6 15 16 14 13 13 12 10 9 7 7 7 8 8 6 6 5 6 7 7 6 6 7 7 4 4
17 13 13 12 15 4 10 12 9 10 13 14 13 10 9 7 8 7 6 6 7 7 6 5 4 5 7 6 6 6 6 5 4
11 10 5 5 5 4 12 9 9 8 11 11 10 10 8 8 8 7 7 8 7 5 5 5 5 5 7 6 7 6 6 5 6
8 14 8 5 10 8 8 9 8 9 12 12 13 12 9 9 10 9 8 8 7 5 5 6 6 5 9 8 7 7 7 7 7
9 11 14 11 11 13 14 16 9 6 11 12 13 12 12 9 10 11 10 10 8 8 7 8 8 7 9 8 8 7 7 8 7
9 8 13 15 9 7 11 10 7 8 5 11 11 12 12 11 12 12 12 10 10 11 10 9 10 9 8 8 7 7 6 6 6
8 8 8 7 9 10 9 8 9 10 9 11 13 12 12 13 13 11 10 10 9 10 10 10 11 9 6 6 6 6 6 6 7
8 7 5 5 7 6 1 4 8 8 5 12 11 13 14 13 12 10 10 10 10 10 11 11 10 11 11 10 7 9 11 9 6
8 7 7 7 5 5 8 5 2 3 3 5 7 11 12 13 13 11 11 11 10 11 11 10 11 9 8 9 7 10 11 12 6
6 6 7 7 5 3 5 7 8 6 6 6 6 10 11 12 13 13 10 11 12 11 9 11 10 9 9 7 7 10 11 11 6
4 7 8 6 3 1 5 6 6 5 8 6 7 10 14 14 14 14 12 13 13 10 10 8 9 7 8 8 7 11 12 8 5
7 8 6 6 9 7 7 8 6 6 7 7 7 6 10 10 10 12 13 14 11 11 9 9 8 8 9 10 10 11 14 10 4
5 5 8 9 9 8 8 7 6 7 5 7 6 6 6 8 9 12 13 13 10 10 9 9 10 10 8 10 11 9 14 14 8
7 7 7 7 5 8 11 8 6 8 7 5 5 6 5 7 9 9 9 13 11 12 11 12 10 11 9 8 9 11 13 15 15
8 8 7 6 5 7 8 8 7 8 9 6 3 5 6 6 7 11 12 12 13 10 13 11 10 9 9 8 5 6 12 16 15
8 7 7 6 7 7 7 7 8 10 11 7 4 6 6 5 8 9 12 8 10 10 11 12 11 10 9 8 7 7 6 7 6
9 8 7 6 7 8 8 7 7 8 10 7 6 5 5 5 7 10 9 5 2 6 8 9 11 11 11 10 8 11 13 12 8
9 9 8 7 8 7 9 8 8 9 7 8 7 6 3 4 4 6 4 2 3 6 3 10 17 17 13 9 13 13 17 18 17
12 10 11 11 11 11 12 9 8 9 8 6 7 7 5 3 3 1 4 7 7 6 5 14 14 13 21 14 15 16 18 18 16
Wind_Direction
35 272 168 175 175 121 165 169 177 175 179 179 181 178 187 184 182 179 181 185 179 195 198 195 201 218 209 187 199 178 193 183 206
44 30 92 111 115 107 98 267 184 182 182 181 182 185 176 182 175 172 178 193 183 176 185 199 201 201 200 190 198 179 182 204 206
69 61 52 94 89 40 68 17 303 217 184 181 183 183 184 176 173 180 169 171 187 174 189 196 188 214 200 190 197 194 184 193 169
93 101 130 173 141 126 88 11 334 244 191 179 184 185 186 171 167 181 171 180 196 202 139 171 220 216 214 190 199 200 183 195 181
80 90 95 78 123 89 154 190 211 234 206 186 187 189 185 189 164 176 176 184 186 158 180 187 236 244 212 191 200 206 185 188 201
68 78 100 98 93 141 251 233 197 207 207 206 189 182 188 186 182 176 186 189 180 173 186 198 225 236 218 188 196 203 200 189 200
80 88 106 127 128 192 237 266 296 253 269 214 204 190 188 194 197 189 185 184 187 180 187 195 212 212 202 195 193 206 207 194 193
90 80 64 86 147 169 226 255 279 232 236 228 202 191 190 197 205 198 182 178 179 187 181 186 203 190 231 221 202 205 206 205 205
71 68 79 62 42 75 162 10 349 358 249 216 201 191 196 192 198 199 191 187 182 179 193 188 191 197 204 207 213 206 198 194 201
28 16 40 51 47 9 343 2 13 330 321 288 225 224 202 194 198 199 198 198 181 190 191 191 201 198 191 208 211 214 214 208 203
4 6 16 358 345 329 326 344 6 331 332 330 275 220 216 206 198 203 199 199 200 193 190 196 196 199 199 200 215 203 209 214 215
349 336 337 319 330 309 335 337 339 343 334 324 328 244 218 210 202 203 200 203 202 193 185 189 201 194 196 199 215 203 211 195 211
335 336 327 321 326 332 344 328 332 345 329 321 326 336 273 234 210 200 200 206 205 195 188 188 184 192 193 197 211 199 209 193 188
299 300 302 315 321 304 285 293 311 304 308 299 299 279 298 239 211 201 206 200 196 196 190 178 183 196 199 203 209 204 199 193 197
298 311 319 321 325 308 306 308 319 292 282 271 290 311 319 301 257 211 194 208 192 189 189 194 192 195 203 205 208 192 211 196 210
270 274 277 290 291 292 294 298 296 286 269 273 283 309 310 302 291 288 243 197 212 194 197 198 199 197 205 207 193 204 207 198 206
262 264 274 265 279 282 283 286 291 286 277 249 260 283 288 293 295 275 263 210 211 205 199 199 198 195 198 190 174 196 187 190 191
247 248 250 256 260 267 266 283 294 302 295 261 252 267 279 296 293 286 276 244 267 247 216 222 198 200 187 185 191 209 188 172 181
253 257 254 250 252 255 268 271 280 288 294 272 254 259 261 277 297 317 318 79 93 83 350 342 10 328 191 197 200 173 176 182 186
245 244 260 257 251 265 261 258 265 273 274 275 250 244 249 248 271 234 124 119 125 119 70 55 50 17 0 257 178 178 185 186 190